CAPE
1 200 1640 1907 1330 1330 1569 1681 1792 1930 2102 2103 2281 2149 2018 2041 2172 2259 2588 2165 2247 1910 1576 1315 1174 1133 1010 1171 1453 1703 1895 2080 1261 1588 2040 2097 2033 2087 2213 2148 1973 1717 2045
1 425 1505 2071 1554 1481 1931 1763 1906 2077 1879 2030 1950 1968 1942 1948 2018 2192 2225 2318 2080 1651 1221 1420 1814 1837 1239 724 1233 1182 1794 1841 2055 1610 2062 2221 2229 2198 2024 1944 2044 1923 1971
108 823 1351 2181 1941 1647 1837 1979 2027 1924 2076 1945 2060 2029 2050 2098 2102 2167 2104 2045 2165 1624 1406 1556 1675 1646 1625 590 991 1133 1255 1766 1938 1591 1945 1424 1845 2087 2050 2143 2055 1960 1995
619 1014 1303 2180 2153 1664 1728 1916 1935 1890 1962 2179 2079 1911 1825 1992 2056 2089 2160 2063 2020 2009 1758 1755 1648 1603 1457 1046 746 1175 1292 1300 1376 1371 941 929 1250 2010 1991 1923 1794 1919 1977
920 1270 1503 2216 2248 1459 1587 2041 1979 1903 2010 1727 1738 1650 1600 1514 1419 1655 2005 2107 1980 1823 1756 1673 1630 1608 1629 1540 1184 848 1276 986 1217 866 610 765 936 1203 1506 1961 1764 1940 1812
1081 1461 2324 2144 1382 1703 1800 2092 2066 1897 1796 1737 2053 2180 1971 1897 1851 1893 1654 1672 1697 1732 1688 1588 1502 1500 1564 1598 1367 1435 1194 1272 1378 611 919 1484 1348 1623 1806 1964 1798 1843 1802
1042 1461 1817 2355 2353 2255 1830 2135 1850 2054 1863 1841 2018 2001 2042 2195 1907 1866 1817 1798 1782 1694 1555 1455 1411 1408 1439 1504 1575 1506 1450 1384 460 479 713 1219 1770 2160 1924 1710 1734 1648 1729
1138 1354 1694 2380 2633 2439 1935 2054 1962 1854 1826 1988 1974 2083 2131 2310 2052 1884 1855 1874 1881 1812 1790 1747 1651 1589 1431 1390 1683 1400 1455 2112 678 900 1108 1535 2371 2044 1818 1648 1814 1760 1705
1118 1096 1358 1469 1354 1962 1897 1983 1957 1756 1830 1964 1846 1840 1905 1968 2038 2009 1819 1733 1675 1594 1587 1660 1710 1640 1637 1587 1550 1641 1742 1760 837 1018 1618 1800 2512 2228 2015 1911 1783 1750 1492
907 935 923 785 1020 1711 1800 1883 1792 1741 1779 1836 1752 1702 1640 1671 1773 1732 2047 2191 1778 1757 1697 1588 1625 1694 1736 1500 1548 1544 2100 2038 789 1024 1290 1857 2529 2041 1928 2051 1677 1634 1692
808 731 771 895 1192 1245 1348 1581 1936 1763 1751 1775 1589 1606 1841 1021 1176 1393 1771 1816 1689 1677 1667 1607 1580 1648 1664 1530 1460 1685 774 792 904 1059 1291 1996 2493 2108 1815 1889 1690 1571 1652
494 486 767 874 722 738 1264 1067 1120 1169 1399 1376 1335 1226 893 916 895 1302 1533 1815 1841 1825 1919 2079 1804 1711 1642 930 1139 1574 292 12 803 958 1393 2158 2220 1899 1762 1500 1880 1835 1756
252 456 872 866 409 608 800 797 804 866 1000 998 853 312 550 1064 1203 1600 1122 1410 1063 740 0 199 271 420 634 936 1002 1161 888 8 674 976 1621 2568 1928 1348 1690 1585 980 918 1363
248 266 550 782 413 378 487 685 679 684 701 802 526 2 749 687 1026 932 802 1037 961 852 163 612 518 466 599 831 1103 1123 878 514 496 858 1813 2734 2533 1730 1688 1605 1435 897 768
165 80 166 525 374 168 194 127 380 433 448 731 819 108 783 599 453 592 595 484 342 497 522 602 578 693 834 766 352 574 431 369 409 1127 1583 2141 2601 2391 1607 1793 1637 1649 1027
6 7 6 100 237 68 63 2 96 131 171 580 1059 773 760 59 404 552 470 403 608 460 463 483 495 859 561 427 516 411 368 252 214 852 1138 1798 2681 2568 2105 1492 1664 1606 1753
0 0 0 14 203 104 92 71 364 351 46 620 911 818 388 336 587 533 501 571 874 614 351 233 541 628 523 77 201 123 363 208 136 178 429 934 1800 2499 2390 2091 1905 1807 1610
0 0 0 65 420 239 400 338 759 304 6 318 814 704 652 772 830 571 784 1031 879 1015 632 771 669 233 65 195 81 68 206 191 159 134 142 570 1317 1472 2185 2513 2407 2211 1686
0 0 4 22 424 20 300 304 574 579 422 16 473 327 546 1091 866 421 412 561 552 755 470 593 148 247 680 647 213 1 54 180 238 185 201 298 714 1041 1398 1754 2324 2292 1603
0 39 3 2 251 145 279 353 351 275 381 99 37 203 192 850 912 474 322 260 111 852 451 750 142 620 374 48 5 0 7 50 23 149 169 170 164 381 712 889 1462 1504 1879
0 156 17 29 34 237 295 520 352 218 250 179 0 201 462 809 1289 829 490 419 2 814 618 621 215 261 19 0 0 0 0 1 14 2 31 110 103 120 104 289 542 405 646
0 81 65 95 35 152 155 211 421 200 89 158 0 440 640 851 1202 1131 813 569 210 852 768 725 595 148 34 0 0 0 0 0 0 0 0 0 24 31 43 82 134 96 100
12 0 0 184 152 141 292 118 312 454 78 142 4 0 779 1038 1342 1396 1149 759 921 789 777 624 359 124 42 0 0 0 0 0 0 0 0 0 0 10 0 22 46 63 43
99 0 0 275 265 190 487 280 343 610 731 109 12 0 253 1101 1382 1315 1104 892 762 730 633 442 550 113 0 0 0 0 0 0 0 0 0 0 0 0 0 0 124 154 73
177 4 96 404 361 335 611 428 312 211 196 15 11 0 1 810 1041 1527 1245 1063 957 754 906 504 805 644 144 0 0 0 0 0 0 0 0 0 0 0 0 0 80 140 112
167 72 5 314 627 489 634 560 416 259 35 53 0 2 0 304 703 1559 1477 1012 913 916 904 691 565 734 742 328 0 0 0 0 0 0 0 0 0 0 0 0 8 35 30
CIN
-5 -15 -0 -0 -0 -0 -0 -5 -2 -1 -0 -0 -0 -0 -0 -0 -0 -0 -0 -0 -0 -0 -0 -15 -22 -27 -25 -4 -0 -0 -0 -0 -2 -0 -0 -0 -1 -1 -0 -0 -0 -0 -0
-40 -7 -0 -0 -0 -0 -0 -0 -0 -0 -0 -0 -0 -0 -0 -0 -0 -0 -0 -0 -0 -0 -19 -15 -0 -0 -4 -25 -0 -0 -0 -0 -0 -0 -0 -0 -0 -0 -0 -0 -0 -0 -0
-60 -2 -0 -0 -0 -0 -0 -0 -0 -0 -0 -0 -0 -0 -0 -0 -0 -0 -0 -0 -0 -0 -9 -4 -1 -0 -0 -30 -3 -0 -1 -1 -0 -0 -0 -20 -2 -0 -0 -0 -0 -0 -0
-7 -2 -0 -0 -0 -0 -0 -0 -0 -0 -0 -0 -0 -0 -0 -0 -0 -0 -0 -0 -0 -0 -0 -0 -0 -1 -0 -6 -23 -4 -15 -13 -9 -1 -29 -16 -1 -0 -0 -0 -0 -0 -0
-5 -7 -1 -0 -0 -1 -0 -0 -0 -0 -0 -0 -0 -0 -0 -0 -0 -0 -0 -0 -0 -0 -0 -2 -9 -7 -2 -5 -18 -18 -19 -28 -11 -35 -65 -40 -20 -2 -0 -0 -0 -0 -0
-2 -2 -0 -0 -1 -0 -0 -0 -0 -0 -0 -0 -0 -0 -0 -0 -0 -0 -0 -0 -0 -0 -0 -4 -12 -11 -10 -7 -19 -17 -12 -11 -22 -74 -43 -9 -12 -0 -0 -0 -0 -0 -0
-1 -1 -0 -0 -0 -0 -0 -0 -0 -0 -0 -0 -0 -0 -0 -0 -0 -0 -0 -0 -0 -0 -1 -8 -16 -19 -13 -13 -10 -10 -11 -13 -95 -80 -59 -27 -3 -0 -0 -0 -0 -0 -0
-0 -2 -0 -0 -0 -0 -0 -0 -0 -0 -0 -0 -0 -0 -0 -0 -0 -0 -0 -0 -0 -1 -3 -3 -6 -10 -19 -18 -13 -18 -12 -5 -44 -56 -52 -22 -1 -0 -0 -0 -0 -0 -0
-3 -7 -4 -2 -3 -0 -0 -0 -0 -0 -0 -0 -0 -0 -0 -0 -0 -1 -1 -0 -5 -14 -18 -20 -20 -17 -15 -24 -24 -14 -12 -20 -79 -69 -28 -16 -0 -0 -0 -0 -0 -0 -0
-10 -23 -24 -48 -40 -5 -1 -0 -0 -0 -0 -0 -0 -8 -9 -8 -11 -14 -6 -0 -15 -22 -24 -22 -32 -29 -18 -33 -26 -25 -12 -16 -81 -59 -50 -7 -0 -0 -0 -0 -0 -0 -0
-8 -41 -42 -54 -41 -26 -21 -5 -2 -2 -5 -5 -16 -19 -14 -58 -55 -30 -21 -15 -22 -25 -27 -25 -33 -27 -19 -20 -28 -35 -86 -133 -100 -80 -54 -6 -0 -0 -0 -0 -0 -0 -0
-33 -52 -52 -61 -84 -79 -24 -41 -53 -45 -32 -39 -51 -62 -81 -75 -86 -49 -42 -12 -10 -30 -26 -34 -30 -45 -34 -74 -67 -56 -178 -80 -130 -103 -51 -2 -0 -0 -0 -0 -0 -0 -0
-110 -70 -46 -66 -124 -103 -66 -88 -105 -86 -86 -99 -108 -167 -134 -101 -87 -50 -62 -47 -95 -122 -0 -157 -214 -224 -157 -82 -98 -87 -115 -58 -139 -92 -32 -0 -0 -12 -0 -0 -11 -11 -0
-104 -106 -90 -78 -124 -138 -131 -123 -137 -125 -129 -127 -166 -290 -117 -129 -112 -115 -110 -93 -104 -130 -226 -193 -198 -194 -203 -143 -86 -83 -107 -161 -171 -118 -34 -0 -0 -0 -0 -0 -0 -19 -33
-107 -126 -128 -103 -123 -171 -166 -190 -172 -164 -156 -136 -128 -273 -150 -150 -174 -169 -154 -198 -196 -195 -187 -184 -191 -177 -150 -129 -145 -154 -148 -147 -167 -113 -73 -5 -0 -0 -0 -0 -0 -0 -10
-21 -169 -230 -163 -137 -203 -200 -28 -200 -187 -178 -144 -98 -120 -157 -112 -181 -196 -174 -175 -148 -178 -191 -168 -177 -140 -140 -131 -105 -131 -137 -187 -219 -130 -112 -36 -0 -0 -0 -0 -0 -0 -0
-0 -0 -0 -241 -148 -191 -192 -203 -124 -133 -182 -106 -122 -127 -167 -203 -151 -168 -160 -177 -131 -193 -212 -204 -143 -129 -124 -135 -89 -163 -102 -161 -190 -213 -168 -105 -23 -0 -0 -0 -0 -0 -0
-0 -0 -0 -140 -106 -128 -141 -123 -84 -160 -26 -141 -114 -123 -129 -129 -142 -141 -127 -133 -123 -120 -162 -114 -126 -125 -134 -110 -143 -173 -126 -149 -172 -216 -234 -141 -81 -59 -7 -0 -0 -0 -0
-0 -0 -220 -103 -99 -228 -139 -121 -93 -111 -143 -88 -151 -138 -123 -101 -135 -143 -155 -139 -159 -117 -130 -119 -142 -111 -67 -69 -103 -38 -197 -145 -157 -153 -188 -163 -134 -98 -73 -27 -1 -0 -0
-0 -111 -170 -50 -122 -166 -161 -140 -121 -155 -147 -211 -215 -152 -143 -108 -138 -156 -176 -173 -218 -123 -120 -107 -103 -104 -113 -59 -69 -0 -188 -190 -187 -168 -167 -166 -188 -130 -113 -86 -36 -25 -4
-0 -122 -194 -185 -227 -151 -165 -126 -146 -153 -157 -173 -0 -145 -132 -117 -100 -135 -161 -157 -167 -115 -91 -93 -102 -86 -96 -0 -0 -0 -0 -163 -170 -171 -208 -178 -164 -159 -189 -127 -108 -108 -66
-0 -152 -185 -180 -241 -183 -170 -171 -164 -198 -222 -160 -0 -134 -130 -99 -97 -113 -115 -128 -154 -92 -105 -82 -71 -95 -104 -0 -0 -0 -0 -0 -0 -0 -0 -0 -212 -238 -199 -191 -158 -156 -145
-59 -0 -0 -204 -231 -213 -187 -262 -217 -159 -288 -202 -103 -0 -116 -86 -84 -80 -93 -119 -104 -109 -81 -95 -101 -98 -87 -0 -0 -0 -0 -0 -0 -0 -0 -0 -0 -172 -0 -222 -247 -232 -252
-205 -0 -0 -238 -227 -232 -202 -214 -177 -151 -136 -289 -354 -0 -185 -83 -72 -78 -90 -100 -108 -120 -104 -106 -101 -126 -0 -0 -0 -0 -0 -0 -0 -0 -0 -0 -0 -0 -0 -0 -194 -199 -270
-155 -90 -251 -237 -239 -231 -206 -188 -212 -240 -286 -142 -408 -0 -80 -113 -77 -73 -88 -89 -95 -117 -96 -114 -77 -89 -147 -0 -0 -0 -0 -0 -0 -0 -0 -0 -0 -0 -0 -0 -279 -237 -263
-203 -262 -227 -255 -229 -243 -208 -207 -231 -263 -453 -379 -0 -146 -0 -227 -142 -80 -82 -97 -104 -116 -98 -115 -112 -99 -99 -148 -0 -0 -0 -0 -0 -0 -0 -0 -0 -0 -0 -0 -277 -300 -383
Wind_Speed
4 4 14 16 17 15 15 16 15 15 15 14 14 15 15 15 15 14 14 15 14 13 12 13 12 11 11 12 13 14 14 14 14 14 15 16 14 13 12 15 14 10 13
8 6 16 16 18 16 15 16 14 14 15 14 14 14 14 14 14 13 13 14 14 13 12 13 12 11 12 12 12 13 13 14 13 15 15 15 15 14 14 14 13 11 13
9 7 12 17 18 16 15 15 14 14 14 13 12 13 13 13 13 12 12 12 11 12 12 11 9 10 11 11 12 12 11 12 13 14 14 5 7 15 14 14 14 13 13
11 8 11 18 18 17 15 14 14 14 14 13 12 12 12 12 12 11 12 11 11 11 10 9 8 8 10 10 10 10 9 9 11 11 5 4 8 13 13 14 14 13 13
10 9 12 18 17 17 15 15 15 13 14 12 12 13 12 12 11 10 11 10 10 10 8 7 6 6 8 8 8 7 7 8 9 7 5 6 5 10 12 12 12 14 12
12 10 17 19 19 16 15 15 14 14 12 11 10 12 11 11 10 11 10 10 9 8 7 5 4 4 5 6 5 7 4 5 6 8 6 7 5 12 12 14 12 12 11
12 10 13 18 17 16 15 14 13 14 12 11 11 10 10 10 11 10 10 9 9 8 6 5 3 1 2 5 4 4 3 6 6 6 6 6 6 13 14 12 12 12 11
13 10 12 16 16 16 15 14 12 13 11 10 10 10 9 10 11 10 9 9 8 8 7 6 3 1 1 3 5 6 4 14 9 5 5 5 10 13 13 12 12 12 11
12 10 8 9 13 15 14 13 12 11 10 9 8 8 8 8 8 9 8 8 8 7 5 5 4 2 2 3 5 5 5 14 7 4 7 4 11 14 13 12 11 11 11
11 9 6 6 6 6 6 13 11 10 9 8 7 8 6 6 6 6 5 5 6 6 6 4 3 3 2 3 5 5 10 9 6 4 3 3 11 14 13 11 12 11 11
10 9 7 6 6 6 5 7 9 10 9 8 7 7 4 1 2 3 4 5 6 5 5 3 2 5 2 3 3 6 8 3 5 4 3 9 11 14 13 11 11 11 9
13 9 8 7 7 6 6 4 5 4 3 3 4 4 3 3 3 4 6 6 5 3 2 5 6 5 1 1 1 2 3 3 3 4 3 10 10 13 13 11 11 11 10
14 10 10 9 7 7 5 4 2 2 3 3 5 4 4 3 3 3 2 0 1 3 2 2 3 1 1 1 2 2 3 4 1 3 5 10 11 13 13 12 11 10 10
15 14 12 10 9 7 4 5 5 4 4 3 4 4 3 3 3 3 2 2 3 2 0 2 0 1 3 4 2 3 3 4 3 2 6 11 12 12 12 12 12 11 11
14 14 14 12 11 8 7 4 4 5 4 6 4 5 4 4 3 3 3 3 3 2 3 2 3 2 4 0 4 5 6 5 5 3 2 13 10 11 11 11 11 11 10
15 15 15 13 12 10 9 6 4 4 5 5 4 6 6 4 3 3 4 4 3 3 3 2 3 3 2 1 3 4 8 6 5 4 3 5 12 11 10 11 10 10 10
15 16 15 14 13 12 9 7 6 7 7 7 5 7 7 5 5 5 3 4 3 4 4 2 4 2 3 2 2 6 6 6 5 5 4 2 5 11 10 10 10 10 10
14 15 15 13 13 12 10 7 5 3 4 5 6 6 7 6 7 5 5 4 3 2 3 3 2 0 2 1 3 3 4 4 5 5 5 4 4 4 8 10 10 10 10
13 17 17 15 13 12 8 6 4 4 4 3 3 5 7 6 8 6 4 4 3 2 2 2 1 2 1 2 2 3 4 4 5 5 5 5 5 4 3 8 10 9 11
12 17 19 14 13 9 6 4 3 1 1 4 4 4 7 5 8 6 4 5 3 1 1 1 1 1 2 1 2 4 3 2 4 4 5 4 4 5 5 5 4 4 9
12 17 18 16 12 9 4 4 3 3 2 2 4 7 6 6 6 6 4 4 4 3 4 3 2 1 1 2 3 4 2 2 5 4 4 4 5 5 5 5 3 3 3
14 19 17 18 14 11 8 6 3 3 3 2 3 4 7 7 7 6 6 5 5 2 3 3 3 1 0 1 3 2 3 5 3 2 1 4 6 4 4 5 5 4 4
18 20 18 18 17 14 11 5 2 2 1 1 3 2 5 7 7 7 7 5 5 4 4 3 4 4 2 1 1 5 2 3 1 2 1 3 5 4 4 5 5 5 6
22 19 20 19 18 15 13 11 12 9 8 5 4 4 5 7 7 7 7 6 6 4 5 4 3 3 3 2 2 1 2 4 3 2 3 2 2 5 6 4 5 6 6
23 20 19 19 19 16 15 14 12 9 6 4 3 6 6 6 8 9 7 7 6 5 5 5 4 4 3 3 3 1 1 1 2 3 3 3 2 3 4 5 6 5 5
21 21 19 19 18 17 17 16 15 14 7 6 4 5 4 4 6 6 7 7 7 6 5 5 5 5 5 3 3 3 4 3 3 3 1 4 4 4 4 4 5 5 5
Wind_Direction
199 176 149 140 128 121 116 108 103 100 96 91 92 94 93 96 99 102 108 111 109 108 110 107 101 96 92 93 97 98 101 103 101 104 103 87 86 111 116 101 101 102 100
141 162 149 146 135 128 120 117 111 105 101 98 96 95 94 95 101 108 108 109 111 111 108 106 102 94 89 93 97 99 104 107 108 107 102 94 90 109 104 108 101 104 102
142 151 152 145 139 134 124 119 114 108 107 103 103 101 98 101 102 109 113 112 110 109 106 106 102 96 89 94 105 106 108 112 111 99 101 76 82 97 111 109 104 104 103
136 141 147 144 142 137 129 121 116 114 110 108 104 101 99 96 102 107 105 106 105 103 106 104 99 92 90 89 98 105 116 113 116 99 104 80 98 101 102 106 106 107 107
128 134 148 140 143 141 133 124 121 117 112 114 116 111 108 108 104 97 98 102 102 101 101 100 100 95 95 99 103 112 96 124 117 101 99 100 94 114 112 108 109 106 109
132 141 141 143 146 142 135 129 128 124 122 120 114 105 114 114 117 117 109 107 108 108 110 114 110 105 107 104 99 93 104 120 78 107 110 104 106 124 116 109 111 110 115
134 136 138 144 144 140 139 138 138 132 130 129 118 117 112 115 109 113 116 117 116 115 121 125 130 116 120 118 116 99 101 124 96 96 107 109 106 117 114 109 113 114 112
134 139 147 147 142 139 143 144 144 135 134 131 131 125 116 111 122 119 119 118 117 121 123 120 107 68 358 88 104 107 85 122 115 111 117 109 116 117 116 116 109 111 117
135 135 138 141 143 145 145 148 142 140 140 140 135 126 124 126 121 125 127 127 127 127 129 129 120 100 346 29 81 82 78 122 116 137 127 120 125 121 118 119 117 114 114
140 136 137 133 131 130 152 152 147 152 150 147 150 144 142 132 139 153 148 154 145 143 138 128 130 106 34 16 57 86 93 118 129 117 104 125 133 124 123 121 122 121 118
142 144 147 136 134 132 142 157 158 164 167 168 171 163 151 143 221 210 185 189 162 159 139 146 173 98 42 44 91 98 86 88 124 129 130 143 136 133 126 126 127 121 126
153 157 156 153 150 152 158 162 167 180 163 180 195 189 159 176 233 230 232 201 170 163 89 107 46 65 138 117 305 117 107 78 109 137 143 154 146 136 136 132 124 135 131
159 161 166 167 161 168 164 174 180 177 190 203 204 187 189 189 211 226 217 142 81 163 18 326 50 340 242 174 200 180 152 137 146 145 156 162 152 149 148 145 141 137 132
164 168 171 176 172 183 158 183 188 186 197 200 201 170 176 200 196 184 159 161 201 246 272 260 213 278 268 277 275 227 182 164 163 157 167 165 159 158 157 157 152 151 155
170 173 178 178 180 184 178 187 190 204 192 212 175 187 187 157 160 152 190 176 189 222 223 226 263 228 257 247 244 205 155 152 171 166 166 168 168 171 170 170 168 167 166
176 181 181 182 184 183 191 184 196 204 209 208 164 182 206 177 168 135 166 205 173 204 217 214 282 247 156 219 270 155 161 162 160 174 158 170 174 177 180 178 178 179 181
182 182 186 184 184 182 191 181 209 213 201 211 161 176 191 164 167 136 198 232 182 201 206 257 270 255 287 128 181 166 165 165 168 173 166 156 178 180 188 188 187 190 195
177 182 187 185 184 181 175 182 190 167 165 187 158 178 181 165 134 146 184 193 177 183 195 212 196 282 310 341 130 188 176 175 157 182 161 162 178 190 195 200 194 199 207
170 181 186 183 186 183 174 170 182 156 138 198 180 163 173 156 151 149 170 187 170 165 256 180 117 180 262 278 244 135 186 184 172 180 150 182 193 200 195 219 198 205 213
167 177 182 181 182 179 163 169 156 180 241 133 205 194 171 173 154 154 175 201 161 196 170 236 144 224 217 28 127 132 187 240 180 178 175 179 191 186 201 203 197 209 217
165 178 183 182 182 168 158 163 170 191 210 190 195 194 188 174 161 162 172 200 177 189 207 164 177 126 340 72 80 7 24 185 191 171 168 179 197 200 191 192 197 195 229
178 183 184 186 181 184 181 185 162 158 206 189 175 197 177 183 169 172 176 193 187 200 212 187 172 143 142 127 120 90 17 348 4 70 237 182 191 180 194 200 198 195 207
189 186 182 186 183 184 180 152 111 101 20 217 225 179 188 188 178 180 191 180 183 194 202 198 170 164 187 322 144 133 83 206 320 12 187 220 177 187 201 204 210 199 195
194 186 186 182 181 182 173 175 189 198 199 203 196 174 192 188 188 186 184 182 177 188 198 200 177 164 126 169 349 98 97 149 142 344 352 297 216 201 203 210 204 205 193
190 185 185 180 180 178 179 182 188 200 200 180 189 202 186 201 191 196 181 184 185 186 208 187 184 186 167 150 164 118 78 41 119 131 208 269 310 236 230 210 200 197 193
189 187 184 182 182 179 181 186 190 199 182 186 202 198 203 195 199 197 188 187 191 185 191 192 203 192 188 172 169 166 173 168 194 151 151 238 209 234 212 219 205 197 193